LUCH 5A

Last updated on Fri Dec 19 2025 00:02:37 GMT+0000 (Coordinated Universal Time)

1 37951U 11074B 25352.51775488 -.00000031 00000+0 00000+0 0 9993 2 37951 8.2939 76.4984 0005094 188.8456 175.5135 1.00269029 51242
UTC large
Height (km)
Speed (km/s)
/
Latitude / Longitude
Inclination (degrees)
Orbital Period (minutes)
Azimuth
Elevation
Range (km)
Doppler Factor

Next 0 passes for location: London (51.5072 / 0.1276)

Sorry there are no passes over London.